Location: downtown San Diego
(32.7310°N, 117.1990°W)
Time: 21:11:02
(UTC-07:00)

Lacrosse 5 rocket - Pass Details

Date: 12 July 2018
Orbit: 463 x 637 km, 57.0° (Epoch: 20 July)

Event Time Altitude Azimuth Distance (km) Brightness Sun altitude
Exits shadow 22:09:40 64° 49° (NE) 603 1.4 -22.7°
Drops below altitude 10° 22:13:19 10° 40° (NE) 1,862 4.1 -23.2°
Sets 22:15:38 0° 39° (NE) 2,794 5.1 -23.5°
